Regional Weather Roundup
Issued by NWS

Home | Current Version | Previous Version | Graphics & Text | Print | Product List | Glossary Off
Versions: 1 2 3 4 5 6 7 8 9 10 11 12 13 14 15 16 17 18 19 20 21 22 23 24 25 26 27 28 29 30 31 32 33 34 35 36 37 38 39 40 41 42 43 44 45 46 47 48 49 50

000
ASUS43 KMPX 231901
RWRMN
WEATHER ROUNDUP FOR MINNESOTA
NATIONAL WEATHER SERVICE TWIN CITIES/CHANHASSEN MN
200 PM CDT MON APR 23 2018


NOTE: "FAIR" INDICATES FEW OR NO CLOUDS BELOW 12,000 FEET WITH NO
SIGNIFICANT WEATHER AND/OR OBSTRUCTIONS TO VISIBILITY. N/A MEANS
CURRENT SKY AND/OR WEATHER CONDITIONS ARE NOT AVAILABLE.

MNZ060>063-068>070-232000-
   Twin Cities Metro

CITY           SKY/WX    TMP DP  RH WIND       PRES   REMARKS
TWIN CITIES    FAIR      67  34  29 SW10      30.18F
ST PAUL        FAIR      67  35  30 W9        30.18F
CRYSTAL        FAIR      66  33  29 W7        30.17F
BLAINE         SUNNY     68  34  28 W7        30.18F
LAKEVILLE      FAIR      66  37  34 NW7       30.18F
EDEN PRAIRIE   FAIR      66  37  34 W10       30.17F
SOUTH ST PAUL  FAIR      67  33  28 CALM      30.17F
LAKE ELMO      FAIR      64  36  34 N5        30.19F
$$
MNZ001>005-007-008-013>017-022>024-027-028-232000-
   Northwest Minnesota

CITY           SKY/WX    TMP DP  RH WIND       PRES   REMARKS
BEMIDJI        FAIR      65  35  33 W9        30.15F
HALLOCK        FAIR      61  32  33 NW16      30.19S
ROSEAU         FAIR      59  41  51 W10G20    30.16F
WARROAD        FAIR      61  36  39 NW12      30.15F
THIEF RVR FALL FAIR      60  34  37 NW14      30.19S
CROOKSTON      FAIR      59  43  55 N10       30.20F
FOSSTON        FAIR      63  36  36 N3        30.18F
DETROIT LAKES  FAIR      64  37  36 W7        30.17F
MOORHEAD       FAIR      63  46  55 N6        30.18S
PARK RAPIDS    FAIR      68  39  34 W10       30.14F
MAHNOMEN       FAIR      61  42  48 NW9       30.17F
$$
MNZ006-009>011-018-025>026-232000-
   North Central Minnesota

CITY           SKY/WX    TMP DP  RH WIND       PRES   REMARKS
BAUDETTE       FAIR      60  36  40 N12       30.14F
FLAG ISLAND    FAIR      54  28  37 NW13      30.14S
INTL FALLS     FAIR      63  31  30 W15G21    30.13S
WASKISH        CLOUDY    63  37  39 W9        30.15F
BIG FORK       FAIR      66  36  32 SW12      30.13F
LONGVILLE      FAIR      68  37  32 SW8       30.15F
GRAND RAPIDS   FAIR      64  38  38 W9        30.16F
CRANE LAKE     FAIR      63  34  34 SW7       30.13F
ORR            FAIR      64  30  27 SW5       30.10F
COOK           FAIR      64  36  34 W7        30.13F
WALKER         FAIR      66  35  31 SW12G17   30.13F
$$
MNZ012-019>021-037-232000-
   Northeast Minnesota

CITY           SKY/WX    TMP DP  RH WIND       PRES   REMARKS
DULUTH         FAIR      66  38  35 W8        30.15F
ELY            FAIR      63  36  36 W14G20    30.12F
HIBBING        FAIR      64  37  36 W12G20    30.13F
EVELETH        FAIR      65  38  36 SW9       30.14F
DULUTH HARBOR  FAIR      66  36  32 SW14      30.15F
TWO HARBORS    FAIR      68  45  42 S13G18    30.12F
SILVER BAY     FAIR      64  37  36 S14       30.11F
GRAND MARAIS     N/A     44  34  67 W10       30.14F
G MARAIS ARPRT FAIR      55  28  35 S10G16    30.14S
$$
MNZ029>031-032-039>041-046>048-054>057-064-232000-
   West Central Minnesota

CITY           SKY/WX    TMP DP  RH WIND       PRES   REMARKS
FERGUS FALLS   FAIR      66  41  39 NW8       30.14F
WHEATON        SUNNY     66  37  34 E3        30.18F
MORRIS         SUNNY     66  39  37 CALM      30.17F
ALEXANDRIA     FAIR      67  35  30 VRB3      30.18F
ELBOW LAKE     FAIR      65  38  38 SW3       30.17F
WADENA         FAIR      64  41  42 W6        30.16F
GLENWOOD       FAIR      66  37  34 W8        30.19F
APPLETON       SUNNY     66  32  28 CALM      30.17F
BENSON         SUNNY     66  36  32 CALM      30.19F
ORTONVILLE     SUNNY     66  37  34 NE6       30.17F
MADISON        SUNNY     68  45  42 SE5       30.17F
WILLMAR        FAIR      64  37  36 W3        30.20F
$$
MNZ033>034-036-042>043-049>051-058-059-232000-
   Central Minnesota

CITY           SKY/WX    TMP DP  RH WIND       PRES   REMARKS
ST CLOUD       FAIR      66  39  37 VRB5      30.17F
SAUK CENTRE    FAIR      64  38  39 SW3       30.18F
PAYNESVILLE    FAIR      66  40  38 W8        30.19F
AITKIN         FAIR      64  36  34 W9        30.15F
PINE RIVER     FAIR      63  39  42 W7        30.18F
BRAINERD       FAIR      67  36  31 VRB3      30.16F
STAPLES        FAIR      66  36  32 W10       30.16F
LITTLE FALLS   FAIR      63  27  25 W5        30.18F
LITCHFIELD     FAIR      66  39  37 SW3       30.19F
BUFFALO        FAIR      64  39  40 SW3       30.19F
MAPLE LAKE     FAIR      66  41  41 W5        30.19F
HUTCHINSON     FAIR      65  42  42 SW5       30.20F
$$
MNZ037-044-045-052-053-232000-
   East Central Minnesota

CITY           SKY/WX    TMP DP  RH WIND       PRES   REMARKS
PRINCETON      FAIR      68  37  32 SW6       30.19S
MORA           FAIR      63  37  39 CALM      30.20F
CAMBRIDGE      FAIR      66  43  42 CALM      30.18F
RUSH CITY      FAIR      64  33  31 SW7       30.19F
MOOSE LAKE     FAIR      64  37  36 S5        30.14F
HINCKLEY       FAIR      64  37  36 W3        30.17F
CLOQUET        FAIR      64  30  27 S8        30.15F
MCGREGOR       FAIR      64  37  36 SW8       30.16F
$$
MNZ071>073-080-081-089-090-097-098-232000-
   Southwest Minnesota

CITY           SKY/WX    TMP DP  RH WIND       PRES   REMARKS
MONTEVIDEO     SUNNY     70  39  32 N3        30.18F
GRANITE FALLS  SUNNY     66  39  36 SE3       30.20F
CANBY          SUNNY     66  32  28 SW3       30.18F
MARSHALL       SUNNY     65  39  38 SW5       30.19F
REDWOOD FALLS  SUNNY     64  37  36 SW3       30.18F
OLIVIA         SUNNY     64  36  34 SW6       30.18F
PIPESTONE      SUNNY    N/A N/A N/A SE5       30.18F
WINDOM         SUNNY     64  36  34 W3        30.19F
JACKSON        SUNNY     61  37  41 CALM      30.20F
TRACY          SUNNY     62  39  42 SW5       30.19F
SLAYTON        SUNNY     62  36  38 CALM      30.21F
$$
MNZ065>067-074>077-082>085-091>093-232000-
   South Central Minnesota

CITY           SKY/WX    TMP DP  RH WIND       PRES   REMARKS
MANKATO        FAIR      64  37  36 N7        30.19F
NEW ULM        SUNNY     63  39  42 CALM      30.19F
ST JAMES       SUNNY     61  45  55 CALM      30.21F
FAIRMONT       SUNNY     58  39  49 CALM      30.20F
GLENCOE        FAIR      64  43  46 W6        30.19F
OWATONNA       FAIR      64  37  36 CALM      30.19F
WASECA         FAIR      63  37  39 NW6       30.20F
ALBERT LEA     FAIR      63  34  34 CALM      30.19F
$$
MNZ078>079-086>088-094>096-232000-
   Southeast Minnesota

CITY           SKY/WX    TMP DP  RH WIND       PRES   REMARKS
ROCHESTER      FAIR      64  36  35 VRB5      30.18F
RED WING       FAIR      66  25  20 S5        30.17F
STANTON        FAIR      66  36  32 NW6       30.17F
DODGE CENTER   FAIR      63  36  36 N6        30.19F
WINONA         FAIR      64  28  25 SW3       30.16F
AUSTIN         FAIR      63  37  39 CALM      30.18F
PRESTON        FAIR      63  31  30 N8        30.19F
$$
ABBREVIATIONS USED IN REMARKS
   TC - TEMPERATURES IN CELSIUS
  WCI - WIND CHILL INDEX
   HX - HEAT INDEX
  VSB - VISIBILITY
$$



USA.gov is the U.S. government's official web portal to all federal, state and local government web resources and services.